TimeCST,TemperatureF,Dew PointF,Humidity,Sea Level PressureIn,VisibilityMPH,Wind Direction,Wind SpeedMPH,Gust SpeedMPH,PrecipitationIn,Events,Conditions,WindDirDegrees,DateUTC
12:15 AM,33.8,26.6,75,29.95,10.0,SSW,6.9,-,N/A,,Overcast,200,2012-12-28 06:15:00
12:55 AM,33.8,28.4,81,29.95,10.0,SSW,9.2,-,N/A,,Overcast,200,2012-12-28 06:55:00
1:35 AM,33.8,28.4,81,29.95,10.0,SSW,5.8,-,N/A,,Overcast,200,2012-12-28 07:35:00
1:55 AM,33.8,28.4,81,29.95,10.0,SSW,4.6,-,N/A,,Overcast,200,2012-12-28 07:55:00
2:35 AM,33.8,28.4,81,29.96,9.0,WSW,3.5,-,N/A,,Overcast,240,2012-12-28 08:35:00
2:55 AM,33.8,28.4,81,29.95,10.0,Calm,Calm,-,N/A,,Overcast,0,2012-12-28 08:55:00
3:15 AM,33.8,28.4,81,29.96,10.0,Calm,Calm,-,N/A,,Overcast,0,2012-12-28 09:15:00
3:35 AM,33.8,28.4,81,29.97,10.0,WSW,4.6,-,N/A,,Overcast,240,2012-12-28 09:35:00
4:15 AM,33.8,28.4,81,29.93,10.0,Calm,Calm,-,N/A,,Overcast,0,2012-12-28 10:15:00
4:35 AM,33.8,28.4,81,29.94,10.0,Calm,Calm,-,N/A,,Overcast,0,2012-12-28 10:35:00
4:55 AM,33.8,28.4,81,29.94,10.0,South,3.5,-,N/A,,Overcast,170,2012-12-28 10:55:00
5:15 AM,33.8,28.4,81,29.93,10.0,Calm,Calm,-,N/A,,Overcast,0,2012-12-28 11:15:00
5:35 AM,33.8,28.4,81,29.93,10.0,Calm,Calm,-,N/A,,Overcast,0,2012-12-28 11:35:00
5:55 AM,33.8,28.4,81,29.92,10.0,Calm,Calm,-,N/A,,Overcast,0,2012-12-28 11:55:00
6:15 AM,33.8,28.4,81,29.93,10.0,Calm,Calm,-,N/A,,Overcast,0,2012-12-28 12:15:00
6:35 AM,33.8,28.4,81,29.93,9.0,Calm,Calm,-,N/A,,Overcast,0,2012-12-28 12:35:00
6:55 AM,33.8,28.4,81,29.93,10.0,Calm,Calm,-,N/A,,Overcast,0,2012-12-28 12:55:00
7:55 AM,33.8,28.4,81,29.91,6.0,North,5.8,-,N/A,,Overcast,360,2012-12-28 13:55:00
8:15 AM,33.8,28.4,81,29.93,5.0,NNW,4.6,-,N/A,,Overcast,330,2012-12-28 14:15:00
8:35 AM,33.8,28.4,81,29.95,5.0,Calm,Calm,-,N/A,,Overcast,0,2012-12-28 14:35:00
9:15 AM,33.8,28.4,81,29.94,5.0,North,4.6,-,N/A,,Overcast,10,2012-12-28 15:15:00
9:35 AM,33.8,28.4,81,29.93,4.0,North,8.1,-,N/A,,Overcast,360,2012-12-28 15:35:00
9:55 AM,33.8,28.4,81,29.92,5.0,NE,5.8,-,N/A,,Overcast,40,2012-12-28 15:55:00
10:15 AM,35.6,28.4,75,29.92,7.0,North,4.6,-,N/A,,Overcast,350,2012-12-28 16:15:00
10:35 AM,35.6,28.4,75,29.94,6.0,WNW,3.5,-,N/A,,Overcast,300,2012-12-28 16:35:00
10:55 AM,35.6,28.4,75,29.95,6.0,NNW,3.5,-,N/A,,Overcast,340,2012-12-28 16:55:00
11:15 AM,35.6,28.4,75,29.94,6.0,Calm,Calm,-,N/A,,Overcast,0,2012-12-28 17:15:00
11:35 AM,35.6,28.4,75,29.92,5.0,Calm,Calm,-,N/A,,Overcast,0,2012-12-28 17:35:00
12:15 PM,37.4,30.2,75,29.91,8.0,NW,11.5,-,N/A,,Mostly Cloudy,310,2012-12-28 18:15:00
12:35 PM,37.4,28.4,70,29.90,8.0,WNW,10.4,-,N/A,,Mostly Cloudy,300,2012-12-28 18:35:00
12:55 PM,35.6,28.4,75,29.91,5.0,WNW,10.4,-,N/A,,Overcast,300,2012-12-28 18:55:00
1:15 PM,35.6,28.4,75,29.90,6.0,NW,12.7,-,N/A,,Overcast,310,2012-12-28 19:15:00
1:35 PM,35.6,26.6,70,29.89,7.0,NW,11.5,-,N/A,,Overcast,310,2012-12-28 19:35:00
1:55 PM,35.6,26.6,70,29.88,7.0,NW,10.4,-,N/A,,Overcast,320,2012-12-28 19:55:00
2:15 PM,35.6,26.6,70,29.88,6.0,NNW,9.2,-,N/A,,Overcast,330,2012-12-28 20:15:00
3:15 PM,32.0,28.4,87,29.90,1.0,NW,5.8,-,N/A,,Overcast,320,2012-12-28 21:15:00
3:55 PM,32.0,28.4,87,29.91,1.0,NW,8.1,-,N/A,,Overcast,310,2012-12-28 21:55:00
4:55 PM,32.0,28.4,87,29.92,4.0,NW,8.1,-,0.02,,Overcast,310,2012-12-28 22:55:00
5:15 PM,32.0,28.4,87,29.92,5.0,NW,8.1,-,0.01,,Overcast,310,2012-12-28 23:15:00
5:35 PM,32.0,26.6,80,29.93,7.0,NW,8.1,-,0.01,,Overcast,310,2012-12-28 23:35:00
6:15 PM,32.0,26.6,80,29.95,8.0,NW,9.2,-,N/A,,Overcast,310,2012-12-29 00:15:00
6:35 PM,32.0,26.6,80,29.95,8.0,NW,9.2,-,N/A,,Overcast,310,2012-12-29 00:35:00
6:55 PM,32.0,26.6,80,29.96,9.0,NW,8.1,-,N/A,,Overcast,310,2012-12-29 00:55:00
7:15 PM,30.2,24.8,80,29.96,10.0,NW,11.5,-,N/A,,Overcast,320,2012-12-29 01:15:00
7:35 PM,30.2,24.8,80,29.97,10.0,NW,10.4,-,N/A,,Overcast,320,2012-12-29 01:35:00
8:15 PM,30.2,23.0,75,29.98,10.0,NW,10.4,-,N/A,,Overcast,310,2012-12-29 02:15:00
8:35 PM,30.2,23.0,75,29.99,10.0,NW,9.2,-,N/A,,Overcast,310,2012-12-29 02:35:00
8:55 PM,30.2,21.2,69,29.99,10.0,NW,11.5,17.3,N/A,,Overcast,310,2012-12-29 02:55:00
9:15 PM,30.2,21.2,69,30.00,10.0,NW,11.5,16.1,N/A,,Overcast,310,2012-12-29 03:15:00
9:35 PM,28.4,21.2,74,30.00,10.0,WNW,13.8,18.4,N/A,,Overcast,300,2012-12-29 03:35:00
9:55 PM,28.4,21.2,74,30.01,10.0,NW,11.5,-,N/A,,Overcast,310,2012-12-29 03:55:00
10:15 PM,28.4,19.4,69,30.02,10.0,WNW,10.4,-,N/A,,Overcast,300,2012-12-29 04:15:00
10:35 PM,26.6,17.6,69,30.03,10.0,WNW,10.4,-,N/A,,Mostly Cloudy,300,2012-12-29 04:35:00
11:15 PM,24.8,17.6,74,30.04,10.0,WNW,6.9,-,N/A,,Clear,290,2012-12-29 05:15:00
11:35 PM,24.8,15.8,69,30.05,10.0,West,8.1,-,N/A,,Clear,280,2012-12-29 05:35:00
11:55 PM,24.8,15.8,69,30.05,10.0,WNW,8.1,-,N/A,,Clear,300,2012-12-29 05:55:00